User: anonymous   Login
Location: Mentone
(34.5413°N, 85.5351°W)
Time: 18:18:34
(UTC-05:00)
Language:

ADEOS Rocket - Orbit

View from above orbital plane
View from above orbital plane
View from above satellite
View from above satellite

Ground track
Ground track

The orbit data is extracted from the following two-line orbital elements,

1 24279U 96046C   15115.71925670  .00000026  00000-0  74315-4 0  9991
2 24279 098.7027 148.8524 0301152 127.8079 008.8033 13.47023011918762
Epoch (UTC): 25 April 2015 17:15:43
Eccentricity: 0.0301152
inclination: 98.7027°
perigee height: 858 km
apogee height: 1308 km
right ascension of ascending node: 148.8524°
argument of perigee: 127.8079°
revolutions per day: 13.47023011
mean anomaly at epoch: 8.8033°
orbit number at epoch: 91876

The dashed part of the orbit path shows where the satellite is in the earth's shadow,  

DLR